Date String (YYYY-MM-DD hh:mm:ss) UTC,Instrument flags,absolute air pressure of the measurement (hPa),sample flow rate (lpm),inlet stack bypass flow (lpm),air temperature of the measurement (°C),ambient temperature measured by the external sensor (°C),aerosol sample conditioner tube jacket temperature (°C),OPC LED temperature (°C),internal box temperature (°C),relative humidity of the measurement (%),span deviation,mass concentration of particles derived from Lorenz-Mie calculation of OPC scattering (μg/m³),mass concentration of particles derived from Lorenz-Mie calculation of OPC scattering (μg/m³),mass concentration of particles derived from Lorenz-Mie calculation of OPC scattering (μg/m³)
DateTimeUTC,F1_M11,P_M11,Q1_M11,Q2_M11,T1_M11,T2_M11,T3_M11,T4_M11,T5_M11,U1_M11,ZSPAN_M11,X2_M11,X0_M11,X1_M11
2024-04-28 21:00:00,SystemResetWarning,0823.5,5.00,000.00,024.1,023.5,000.0,032.4,025.9,022.7,0000.0,0003.06,0005.13,0002.49
2024-04-28 21:01:00,SystemResetWarning,0823.5,5.00,000.00,024.1,023.5,000.0,032.4,025.9,022.2,0000.0,0003.06,0005.01,0002.50
2024-04-28 21:02:00,SystemResetWarning,0823.5,5.00,000.00,024.1,023.5,000.0,032.4,025.9,021.9,0000.0,0003.04,0004.93,0002.51
2024-04-28 21:03:00,SystemResetWarning,0823.5,5.00,000.00,024.1,023.5,000.0,032.4,026.0,022.1,0000.0,0003.05,0004.71,0002.50
2024-04-28 21:04:00,SystemResetWarning,0823.5,5.00,000.00,024.2,023.5,000.0,032.5,026.0,022.7,0000.0,0003.10,0005.14,0002.51
2024-04-28 21:05:00,SystemResetWarning,0823.5,5.00,000.00,024.2,023.5,000.0,032.5,026.0,023.0,0000.0,0003.11,0006.58,0002.51
2024-04-28 21:06:00,SystemResetWarning,0823.5,5.00,000.00,024.2,023.5,000.0,032.5,026.0,023.0,0000.0,0003.09,0006.53,0002.51
2024-04-28 21:07:00,SystemResetWarning,0823.4,5.01,000.00,024.2,023.6,000.0,032.5,026.0,023.3,0000.0,0003.12,0006.63,0002.51
2024-04-28 21:08:00,SystemResetWarning,0823.5,5.01,000.00,024.2,023.6,000.0,032.5,026.1,022.5,0000.0,0003.13,0006.39,0002.50
2024-04-28 21:09:00,SystemResetWarning,0823.5,5.00,000.00,024.2,023.6,000.0,032.5,026.1,021.9,0000.0,0003.11,0006.16,0002.49
2024-04-28 21:10:00,SystemResetWarning,0823.5,5.01,000.00,024.3,023.6,000.0,032.5,026.1,022.4,0000.0,0003.07,0006.15,0002.46
2024-04-28 21:11:00,SystemResetWarning,0823.5,5.00,000.00,024.3,023.6,000.0,032.6,026.1,021.5,0000.0,0003.04,0006.07,0002.45
2024-04-28 21:12:00,SystemResetWarning,0823.5,5.00,000.00,024.3,023.7,000.0,032.6,026.1,021.3,0000.0,0003.01,0005.99,0002.45
2024-04-28 21:13:00,SystemResetWarning,0823.5,5.00,000.00,024.3,023.7,000.0,032.6,026.1,021.1,0000.0,0003.04,0006.05,0002.46
2024-04-28 21:14:00,SystemResetWarning,0823.5,5.00,000.00,024.3,023.7,000.0,032.6,026.1,021.0,0000.0,0003.01,0006.01,0002.46
2024-04-28 21:15:00,SystemResetWarning,0823.5,5.00,000.00,024.3,023.7,000.0,032.6,026.2,020.9,0000.0,0002.96,0005.71,0002.45
2024-04-28 21:16:00,SystemResetWarning,0823.5,5.00,000.00,024.4,023.7,000.0,032.7,026.2,021.6,0000.0,0002.91,0004.00,0002.44
2024-04-28 21:17:00,SystemResetWarning,0823.4,5.00,000.00,024.4,023.7,000.0,032.7,026.2,022.4,0000.0,0002.90,0003.93,0002.42
2024-04-28 21:18:00,SystemResetWarning,0823.4,5.00,000.00,024.4,023.8,000.0,032.7,026.2,023.1,0000.0,0002.82,0003.73,0002.40
2024-04-28 21:19:00,SystemResetWarning,0823.4,5.00,000.00,024.4,023.8,000.0,032.7,026.2,020.7,0000.0,0002.78,0004.12,0002.39
2024-04-28 21:20:00,SystemResetWarning,0823.4,5.00,000.00,024.4,023.8,000.0,032.7,026.2,020.5,0000.0,0002.74,0004.59,0002.38
2024-04-28 21:21:00,SystemResetWarning,0823.5,5.00,000.00,024.4,023.8,000.0,032.7,026.3,020.4,0000.0,0002.72,0004.61,0002.37
2024-04-28 21:22:00,SystemResetWarning,0823.5,5.01,000.00,024.4,023.8,000.0,032.7,026.3,019.8,0000.0,0002.69,0004.63,0002.35
2024-04-28 21:23:00,SystemResetWarning,0823.4,5.00,000.00,024.5,023.8,000.0,032.8,026.3,019.8,0000.0,0002.68,0004.71,0002.32
2024-04-28 21:24:00,SystemResetWarning,0823.4,5.01,000.00,024.5,023.8,000.0,032.8,026.3,020.0,0000.0,0002.66,0004.73,0002.26
2024-04-28 21:25:00,SystemResetWarning,0823.4,5.00,000.00,024.5,023.9,000.0,032.8,026.3,021.8,0000.0,0002.65,0004.75,0002.23
2024-04-28 21:26:00,SystemResetWarning,0823.4,5.00,000.00,024.5,023.9,000.0,032.8,026.3,021.2,0000.0,0002.65,0004.86,0002.20
2024-04-28 21:27:00,SystemResetWarning,0823.4,4.99,000.00,024.5,023.9,000.0,032.8,026.4,019.5,0000.0,0002.62,0004.84,0002.16
2024-04-28 21:28:00,SystemResetWarning,0823.4,5.00,000.00,024.5,023.9,000.0,032.8,026.4,020.1,0000.0,0002.60,0004.86,0002.13
2024-04-28 21:29:00,SystemResetWarning,0823.4,5.00,000.00,024.6,023.9,000.0,032.9,026.4,019.7,0000.0,0002.62,0004.95,0002.12
2024-04-28 21:30:00,SystemResetWarning,0823.4,5.01,000.00,024.6,023.9,000.0,032.9,026.4,019.5,0000.0,0002.62,0004.97,0002.11
2024-04-28 21:31:00,SystemResetWarning,0823.5,5.00,000.00,024.6,024.0,000.0,032.9,026.4,019.5,0000.0,0002.61,0004.02,0002.09
2024-04-28 21:32:00,SystemResetWarning,0823.4,4.99,000.00,024.6,024.0,000.0,032.9,026.4,019.7,0000.0,0002.65,0004.00,0002.08
2024-04-28 21:33:00,SystemResetWarning,0823.5,4.99,000.00,024.6,024.0,000.0,032.9,026.5,020.3,0000.0,0002.64,0004.81,0002.06
2024-04-28 21:34:00,SystemResetWarning,0823.5,5.01,000.00,024.7,024.0,000.0,032.9,026.5,020.8,0000.0,0002.66,0004.92,0002.05
2024-04-28 21:35:00,SystemResetWarning,0823.5,5.01,000.00,024.7,024.0,000.0,033.0,026.5,020.9,0000.0,0002.62,0004.83,0002.05
2024-04-28 21:36:00,SystemResetWarning,0823.5,5.00,000.00,024.7,024.1,000.0,033.0,026.5,019.9,0000.0,0002.63,0004.84,0002.06
2024-04-28 21:37:00,SystemResetWarning,0823.5,5.00,000.00,024.7,024.1,000.0,033.0,026.6,019.7,0000.0,0002.62,0004.84,0002.07
2024-04-28 21:38:00,SystemResetWarning,0823.5,4.99,000.00,024.7,024.1,000.0,033.0,026.6,019.7,0000.0,0002.62,0005.83,0002.07
2024-04-28 21:39:00,SystemResetWarning,0823.4,5.00,000.00,024.7,024.1,000.0,033.0,026.6,019.9,0000.0,0002.63,0006.52,0002.08
2024-04-28 21:40:00,SystemResetWarning,0823.5,5.00,000.00,024.8,024.1,000.0,033.0,026.6,020.1,0000.0,0002.58,0006.38,0002.09
2024-04-28 21:41:00,SystemResetWarning,0823.4,5.00,000.00,024.8,024.1,000.0,033.1,026.6,020.1,0000.0,0002.59,0006.38,0002.10
2024-04-28 21:42:00,SystemResetWarning,0823.4,5.00,000.00,024.8,024.1,000.0,033.1,026.6,020.5,0000.0,0002.61,0006.57,0002.09
2024-04-28 21:43:00,SystemResetWarning,0823.4,5.00,000.00,024.8,024.1,000.0,033.1,026.6,021.2,0000.0,0002.58,0006.74,0002.10
2024-04-28 21:44:00,SystemResetWarning,0823.4,5.00,000.00,024.8,024.2,000.0,033.1,026.7,021.2,0000.0,0002.57,0006.28,0002.10
2024-04-28 21:45:00,SystemResetWarning,0823.3,5.00,000.00,024.8,024.2,000.0,033.1,026.7,020.8,0000.0,0002.54,0005.68,0002.11
2024-04-28 21:46:00,SystemResetWarning,0823.3,5.00,000.00,024.9,024.2,000.0,033.2,026.7,021.1,0000.0,0002.54,0005.67,0002.11
2024-04-28 21:47:00,SystemResetWarning,0823.3,4.99,000.00,024.9,024.2,000.0,033.2,026.7,020.7,0000.0,0002.52,0005.64,0002.10
2024-04-28 21:48:00,SystemResetWarning,0823.3,5.00,000.00,024.9,024.2,000.0,033.2,026.7,021.3,0000.0,0002.51,0005.67,0002.10
2024-04-28 21:49:00,SystemResetWarning,0823.3,5.00,000.00,024.9,024.2,000.0,033.2,026.7,020.5,0000.0,0002.49,0004.88,0002.10
2024-04-28 21:50:00,SystemResetWarning,0823.3,4.99,000.00,024.9,024.3,000.0,033.2,026.7,020.1,0000.0,0002.47,0003.99,0002.07
2024-04-28 21:51:00,SystemResetWarning,0823.3,5.00,000.00,024.9,024.3,000.0,033.2,026.8,020.2,0000.0,0002.46,0004.00,0002.04
2024-04-28 21:52:00,SystemResetWarning,0823.3,5.00,000.00,024.9,024.3,000.0,033.2,026.8,020.6,0000.0,0002.40,0003.87,0001.99
2024-04-28 21:53:00,SystemResetWarning,0823.3,5.01,000.00,025.0,024.3,000.0,033.2,026.8,019.0,0000.0,0002.32,0003.56,0001.96
2024-04-28 21:54:00,SystemResetWarning,0823.3,5.01,000.00,025.0,024.3,000.0,033.3,026.8,019.0,0000.0,0002.30,0003.36,0001.92
2024-04-28 21:55:00,SystemResetWarning,0823.2,5.00,000.00,025.0,024.3,000.0,033.3,026.8,018.6,0000.0,0002.27,0003.25,0001.89
2024-04-28 21:56:00,SystemResetWarning,0823.3,4.99,000.00,025.0,024.3,000.0,033.3,026.8,019.1,0000.0,0002.20,0003.16,0001.84
2024-04-28 21:57:00,SystemResetWarning,0823.3,4.99,000.00,025.0,024.4,000.0,033.3,026.8,018.6,0000.0,0002.13,0003.06,0001.79
2024-04-28 21:58:00,SystemResetWarning,0823.2,4.99,000.00,025.0,024.4,000.0,033.3,026.8,019.0,0000.0,0002.08,0002.95,0001.74
2024-04-28 21:59:00,SystemResetWarning,0823.3,5.00,000.00,025.0,024.4,000.0,033.3,026.8,018.5,0000.0,0002.02,0002.80,0001.68
